Flag for Cambodia Weather past 2 weeks in Phnom Penh, Cambodia

Now
86 °F

Scattered clouds.


Feels Like: 86 °F
Forecast: 70 / 90 °F
Wind: 5 mph from South

Location: Phnom-Penh / Pochentong

Current Time: Feb 1, 2015 at 6:43:36 PM

Latest Report: Feb 1, 2015 at 6:00 PM


Visibility: 6 mi

Pressure: 29.86 "Hg

Humidity: 43%

Dew point: 61 °F

Location of Phnom PenhLocation

Historic Weather in Phnom Penh — Graph

°F

Phnom Penh temperature yesterday

Maximum temperature yesterday: 91 °F (at 2:30 PM)
Minimum temperature yesterday: 72 °F (at 6:30 AM)
Average temperature yesterday: 82 °F

Past Weeks' High & Low Weather Summary

 TemperatureHumidityPressure
High102 °F (Jan 19, 5:00 PM)94% (Jan 22, 6:00 AM)30.07 "Hg (Jan 22, 6:00 AM)
Low68 °F (Jan 22, 6:00 AM)16% (Jan 20, 3:30 PM)29.71 "Hg (Jan 20, 12:00 PM)
Average81 °F61%29.91 "Hg
* Reported Jan 17 5:00 PM — Feb 1 5:30 PM, Phnom Penh, Weather by CustomWeather, © 2014

Note: Actual official high and low records may vary slightly from our data, if they occured in-between our weather recording intervals... More about our weather records

Advertising

Phnom Penh weather history for previous 24 hours

 ConditionsComfort  
Time TempWeatherWind HumidityBarometerVisibility
5:30 PM
Feb 1
88 °FScattered clouds.6 mph40%29.86 "Hg6 mi
5:00 PM90 °FScattered clouds.8 mph38%29.86 "Hg6 mi
4:30 PM91 °FPassing clouds.8 mph36%29.83 "HgN/A
4:00 PM91 °FPassing clouds.9 mph34%29.83 "HgN/A
3:30 PM91 °FPassing clouds.10 mph34%29.83 "HgN/A
3:00 PM91 °FPassing clouds.13 mph34%29.83 "HgN/A
2:30 PM90 °FPassing clouds.12 mph36%29.86 "HgN/A
2:00 PM91 °FPassing clouds.14 mph34%29.86 "HgN/A
1:30 PM91 °FPassing clouds.16 mph34%29.89 "HgN/A
1:00 PM91 °FPassing clouds.14 mph34%29.92 "HgN/A
12:30 PM88 °FPassing clouds.15 mph38%29.92 "HgN/A
12:00 PM88 °FPassing clouds.14 mph40%29.95 "HgN/A
11:30 AM86 °FPassing clouds.14 mph43%29.95 "HgN/A
11:00 AM82 °FSunny.14 mph48%29.98 "Hg10 mi
10:30 AM82 °FSunny.16 mph48%29.98 "Hg10 mi
10:00 AM81 °FSunny.15 mph51%30.01 "Hg10 mi
9:30 AM79 °FSunny.14 mph54%30.01 "Hg10 mi
9:00 AM77 °FSunny.13 mph57%30.01 "Hg10 mi
8:30 AM75 °FSunny.8 mph61%30.01 "Hg10 mi
8:00 AM75 °FPassing clouds.5 mph57%29.98 "HgN/A
7:30 AM73 °FClear.6 mph61%29.98 "Hg6 mi
7:00 AM72 °FClear.5 mph65%29.95 "Hg6 mi
6:30 AM72 °FClear.8 mph65%29.95 "Hg6 mi
6:00 AM73 °FClear.8 mph61%29.92 "Hg6 mi
12:30 AM77 °FClear.2 mph74%29.95 "Hg5 mi
12:00 AM77 °FClear.1 mph74%29.95 "Hg5 mi
11:30 PM
Jan 31
77 °FClear.1 mph74%29.95 "Hg5 mi
11:00 PM77 °FClear.No wind74%29.92 "Hg5 mi
10:30 PM77 °FClear.2 mph74%29.92 "Hg5 mi
10:00 PM79 °FClear.No wind70%29.92 "Hg5 mi
9:30 PM79 °FClear.2 mph70%29.92 "Hg5 mi
9:00 PM79 °FClear.2 mph70%29.92 "Hg5 mi
8:30 PM79 °FClear.2 mph65%29.92 "Hg5 mi
8:00 PM79 °FClear.5 mph65%29.92 "Hg5 mi
7:30 PM81 °FClear.8 mph58%29.89 "Hg5 mi
7:00 PM86 °FClear.3 mph43%29.89 "Hg5 mi
6:30 PM86 °FClear.3 mph40%29.86 "Hg5 mi
6:00 PM86 °FClear.2 mph40%29.86 "Hg5 mi
Weather by CustomWeather, © 2014

See weather overviewHow to use our weather pages